Preview of NWS' New Version of Forecast
This preview is not operational and should not be used for support decisions.

Regional Weather Roundup (RWR)

Issued by National Weather Service (NWS)

                            
000
ASUS45 KBOI 182310
RWRID 

IDAHO REGIONAL WEATHER ROUNDUP
NATIONAL WEATHER SERVICE BOISE ID
500 PM MDT THU APR 18 2019

NOTE: "FAIR" INDICATES FEW OR NO CLOUDS BELOW 12000 FEET
WITH NO SIGNIFICANT WEATHER AND/OR OBSTRUCTIONS TO VISIBILITY

IDZ012-014-190000-
SOUTHWEST IDAHO

  
CITY           SKY/WX    TMP DP  RH WIND       PRES   REMARKS
BOISE          SUNNY     71  34  25 W5        30.23F                  
CALDWELL       SUNNY     74  42  31 VRB6      30.22F                  
MOUNTAIN HOME  MOSUNNY   72  40  31 N9        30.23F                  
$$

IDZ016-017-190000-
SOUTHCENTRAL IDAHO

  
CITY           SKY/WX    TMP DP  RH WIND       PRES   REMARKS
BURLEY         SUNNY     67  34  29 W8G18     30.26F                  
JEROME         SUNNY     67  33  28 SW13      30.28F                  
TWIN FALLS     SUNNY     67  34  29 SW6       30.28F                  
$$

IDZ019>023-190000-
SOUTHEAST IDAHO

  
CITY           SKY/WX    TMP DP  RH WIND       PRES   REMARKS
IDAHO FALLS    MOSUNNY   63  31  30 SW15      30.28F                  
POCATELLO      SUNNY     66  35  31 W16       30.27F                  
REXBURG        SUNNY     63  30  28 SW13      30.26F                  
$$

IDZ006-010-011-018-031-032-190000-
CENTRAL IDAHO MOUNTAINS

  
CITY           SKY/WX    TMP DP  RH WIND       PRES   REMARKS
MCCALL         MOSUNNY   54  32  43 S7        30.27F                  
HAILEY         SUNNY     64  32  29 CALM      30.29F                  
STANLEY          N/A     57  26  30 VRB5      30.34F                  
SALMON         MOSUNNY   67  35  30 N6        30.21F                  
CHALLIS        SUNNY     71  30  21 NW15G23   30.21F                  
$$

IDZ002-004-006-007-026-190000-
NORTHERN IDAHO

  
CITY           SKY/WX    TMP DP  RH WIND       PRES   REMARKS
LEWISTON       SUNNY     72  44  36 N7        30.13F                  
LOWELL           N/A     70  47  43 CALM      30.11F                  
COEUR D'ALENE  CLOUDY    62  42  47 N3        30.16F                  
MULLAN PASS    CLOUDY    47  33  58 SW9       30.22F                  
$$